Curacao, Curacao

2:13 PM AST on August 29, 2016 (GMT -0400)
Willemstad-Hato International

Weather History for TNCC - January, 2013

Change the Weather History Date:

Sunday, January 27, 2013

  Actual Average Record
Temperature  
Mean Temperature 82 °F -  
Max Temperature 88 °F 84 °F 89 °F (2001)
Min Temperature 77 °F 75 °F 66 °F (2009)
Cooling Degree Days 18    
Growing Degree Days 32 (Base 50)    
Moisture  
Dew Point 73 °F    
Average Humidity 72    
Maximum Humidity 84    
Minimum Humidity 57    
Precipitation  
Precipitation 0.04 in 0.04 in - ()
Sea Level Pressure  
Sea Level Pressure 29.99 in    
Wind  
Wind Speed 11 mph ()    
Max Wind Speed 15 mph    
Max Gust Speed -    
Visibility 8.3 miles    
Events      
Averages and records for this station are not official NWS values.
T = Trace of Precipitation, MM = Missing Value Source: Averaged Metar Reports

Daily Weather History Graph

Daily Weather History Graph

Search for Another Location

Airport or City:

Trip Planner

Search our weather history database for the weather conditions in past years. The results will help you decide how hot, cold, wet, or windy it might be!

Date:

Astronomy

Jan. 27, 2013 Rise Set
Actual Time 7:01 AM AST 6:36 PM AST
Civil Twilight 6:39 AM AST 6:58 PM AST
Nautical Twilight 6:13 AM AST 7:23 PM AST
Astronomical Twilight 5:48 AM AST 7:49 PM AST
Moon 7:08 PM AST (1/27) 7:06 AM AST (1/27)
Length of Visible Light 12h 19m
Length of Day
11h 34m
Full, 100% of the Moon is Illuminated
Jan 27
Full
Feb 3
Last Quarter
Feb 10
New
Feb 17
First Quarter
Feb 25
Full

Hourly Weather History & Observations

Time (AST) Temp. Heat Index Dew Point Humidity Pressure Visibility Wind Dir Wind Speed Gust Speed Precip Events Conditions
12:00 AM 78.8 °F - 71.6 °F 78% 29.98 in 6.2 mi ESE 12.7 mph - N/A   Partly Cloudy
1:00 AM 78.8 °F - 69.8 °F 74% 29.95 in 6.2 mi ESE 8.1 mph - N/A   Partly Cloudy
2:00 AM 80 °F - 72 °F 70% 29.94 in 25 mi ESE 9.2 mph - -   Scattered Clouds
2:00 AM 78.8 °F - 69.8 °F 74% 29.95 in 6.2 mi East 10.4 mph - N/A   Partly Cloudy
3:00 AM 80.6 °F 84.6 °F 71.6 °F 74% 29.92 in 6.2 mi East 12.7 mph - N/A   Scattered Clouds
4:00 AM 80.6 °F 84.6 °F 71.6 °F 74% 29.92 in 6.2 mi East 13.8 mph - N/A   Partly Cloudy
5:00 AM 80 °F - 71 °F 68% 29.95 in 25 mi East 13.8 mph - -   Partly Cloudy
5:00 AM 80.6 °F 84.6 °F 71.6 °F 74% 29.95 in 6.2 mi East 13.8 mph - N/A   Scattered Clouds
6:00 AM 80.6 °F 85.4 °F 73.4 °F 79% 29.95 in 6.2 mi East 13.8 mph - N/A   Scattered Clouds
7:00 AM 78.8 °F - 73.4 °F 83% 29.95 in 6.2 mi East 15.0 mph - N/A   Partly Cloudy
8:00 AM 80 °F - 74 °F 76% 30.00 in 16 mi East 10.4 mph - -   Scattered Clouds
8:00 AM 80.6 °F 85.4 °F 73.4 °F 79% 29.98 in 6.2 mi East 10.4 mph - N/A   Partly Cloudy
9:00 AM 82.4 °F 88.2 °F 73.4 °F 74% 30.01 in 6.2 mi East 13.8 mph - N/A   Partly Cloudy
10:00 AM 82.4 °F 88.2 °F 73.4 °F 74% 30.04 in 6.2 mi East 15.0 mph - N/A   Scattered Clouds
11:00 AM 85 °F - 73 °F 59% 30.04 in 25 mi East 13.8 mph - -   Partly Cloudy
11:00 AM 86.0 °F 91.8 °F 71.6 °F 62% 30.04 in 6.2 mi East 13.8 mph - N/A   Scattered Clouds
12:00 PM 86.0 °F 91.8 °F 71.6 °F 62% 30.01 in 6.2 mi East 13.8 mph - N/A   Scattered Clouds
1:00 PM 86.0 °F 93.4 °F 73.4 °F 66% 30.01 in 6.2 mi East 12.7 mph - N/A   Partly Cloudy
2:00 PM 86 °F - 73 °F 57% 29.99 in 19 mi East 12.7 mph - -   Partly Cloudy
2:00 PM 87.8 °F 95.6 °F 73.4 °F 62% 30.01 in 6.2 mi East 12.7 mph - N/A   Scattered Clouds
3:00 PM 86.0 °F 93.4 °F 73.4 °F 66% 29.98 in 6.2 mi East 11.5 mph - N/A   Partly Cloudy
4:00 PM 84.2 °F 90.9 °F 73.4 °F 70% 29.95 in 6.2 mi East 15.0 mph - N/A   Partly Cloudy
5:00 PM 83 °F - 74 °F 66% 29.96 in 19 mi East 12.7 mph - -   Partly Cloudy
5:00 PM 84.2 °F 90.9 °F 73.4 °F 70% 29.95 in 6.2 mi East 12.7 mph - N/A   Scattered Clouds
6:00 PM 82.4 °F 88.2 °F 73.4 °F 74% 29.98 in 6.2 mi East 12.7 mph - N/A   Partly Cloudy
7:00 PM 80.6 °F 86.2 °F 75.2 °F 84% 29.98 in 6.2 mi East 11.5 mph - N/A   Partly Cloudy
8:00 PM 80 °F - 74 °F 76% 30.01 in 19 mi East 13.8 mph - -   Scattered Clouds
8:00 PM 80.6 °F 85.4 °F 73.4 °F 79% 30.01 in 6.2 mi East 13.8 mph - N/A   Partly Cloudy
9:00 PM 80.6 °F 85.4 °F 73.4 °F 79% 30.01 in 6.2 mi East 13.8 mph - N/A   Scattered Clouds
10:00 PM 80.6 °F 85.4 °F 73.4 °F 79% 30.04 in 6.2 mi East 13.8 mph - N/A   Partly Cloudy
11:00 PM 80 °F - 73 °F 73% 30.04 in 19 mi East 15.0 mph - -   Scattered Clouds
11:00 PM 78.8 °F - 73.4 °F 83% 30.04 in 6.2 mi East 15.0 mph - N/A   Partly Cloudy